Location: Houhaj�rvi
(61.2667°N, 23.0167°E)
Time: 18:26:58
(UTC+00:00)

Cosmos 1980 - Pass Details

Date: 13 December 2019
Orbit: 838 x 848 km, 71.0° (Epoch: 16 January)

Event Time Altitude Azimuth Distance (km) Brightness Sun altitude
Rises 17:23:08 0° 238° (WSW) 3,392 7.7 -27.5°
Reaches altitude 10° 17:25:37 10° 243° (WSW) 2,461 6.9 -27.8°
Maximum altitude 17:31:12 59° 323° (NW) 978 4.1 -28.4°
Enters shadow 17:31:59 53° 357° (N) 1,030 4.1 -28.5°
